QIANFAN-100 (66042 NORAD) Tracking and Keplerian Element Data

This shows tracking and keplerian element data for the satellite.

Feedback or suggestion? Click here.




ElementValue
Catalog66042
NameQIANFAN-100
Epoch Orbit902
Epoch Day354.10184352
Epoch Year2025
RAAN61.3125
Inclination88.9951
Eccentricity0.0014708
Argument of Perigee24.859
Mean Anonmoly335.3281
Mean Motion13.77358542
Decay Rate-0.02015159
L11 66042U 25233K 25354.10184352 -.02015159 00000+0 -21733+1 0 9996
L22 66042 88.9951 61.3125 0014708 24.8590 335.3281 13.77358542 9027



Live tracking and technical data element details for QIANFAN-100 (NORAD 66042). QIANFAN-100 can be tracked NOW for your location showing map with azimuth and elevation plus other details from your city location.







IsCatalogInMostPopularTable: catalog: 66042, numindb: 3
Update: records affected: 1



GetName: 66042 QIANFAN-100

Hit Count: updated at: Mon, 20 Apr 2026 09:11:13 GMT